TIME,DELAY(SENSOR),PRES,OXYGEN,RAWTEMP,T(OPTODE),TCPHASE,FLUOR,BETA(BETA700),BETA(BETA412),BETA(BETA440),CDOM,C(CSC),ED(ED411.90),ED(ED443.80),ED(ED489.40),ED(ED554.70),LU(LU412.20),LU(LU443.80),LU(LU489.40),LU(LU555.00),COMP,TILTX,TILTY,CHECK
1371336366,5802,850.2299804687500000,156.4497985839843800,395.4526062011719000,10.7412700653076170,39.1741905212402340,52,102,95,82,79,9942,2146959378,2147519597,2147283053,2147491291,2147086802,2146935277,2147695753,2147121014,2418,-1,8,7014
1371339962,5804,958.1900024414062000,172.3070068359375000,471.3583068847656000,8.4154367446899410,39.2432518005371100,52,106,97,80,80,9940,2146962843,2147516397,2147291556,2147505755,2147086665,2146924589,2147715181,2147125824,2158,-1,8,18363
1371343562,5808,981.4199829101562000,177.8898010253906200,484.8781127929687500,7.9978890419006350,39.0815811157226560,52,103,96,78,80,9941,2146962843,2147520667,2147293952,2147508525,2147085449,2146929197,2147713563,2147123273,981,-1,8,56856
1371347162,5807,980.2999877929688000,180.7104949951172000,489.3492126464844000,7.8595499992370605,38.9648017883300800,52,104,97,79,80,9931,2146964553,2147518436,2147295314,2147508507,2147085906,2146926409,2147715053,2147121042,986,0,8,36407
1371350762,5808,984.2600097656250000,177.5359039306640600,489.9002990722656000,7.8424911499023440,39.1929092407226560,51,102,96,79,81,9928,2146961609,2147520594,2147295725,2147509970,2147085833,2146925970,2147719049,2147122011,762,-1,8,60943
1371354362,5807,989.2000122070312000,182.3016967773437500,491.9256896972656000,7.7797780036926270,38.9017295837402340,51,105,96,80,80,9928,2146961270,2147518857,2147295149,2147507739,2147087853,2146927798,2147713837,2147122596,189,-1,8,14456
1371357962,5803,989.2399902343750000,175.8937072753906200,492.1924133300781000,7.7715167999267580,39.3461494445800800,52,104,96,80,81,9926,2146963309,2147517412,2147291629,2147509531,2147088365,2146932214,2147717558,2147123145,3221,-1,8,7930
1371361562,5804,986.7500000000000000,179.9907073974609400,492.5481872558594000,7.7604942321777340,39.0692214965820300,53,101,96,79,81,9924,2146960237,2147519789,2147292882,2147512219,2147086390,2146923520,2147718134,2147122212,342,-1,8,5317
1371365162,5804,988.6900024414062000,188.7055053710937500,494.4132080078125000,7.7027158737182620,38.5188102722168000,52,106,97,78,81,9926,2146958884,2147519049,2147293440,2147508626,2147088192,2146926829,2147715117,2147124077,2949,-1,8,62130
1371368762,5801,991.8400268554688000,187.8027954101562500,493.2040100097656000,7.7401809692382810,38.5575218200683600,52,102,96,80,80,9927,2146964205,2147520566,2147294701,2147507821,2147087698,2146930066,2147717357,2147122304,3436,-1,8,61913
1371372362,5807,989.6300048828125000,191.7595062255859400,494.7853088378906000,7.6911830902099610,38.3278999328613300,52,102,96,79,80,9926,2146961362,2147518646,2147293778,2147510299,2147085814,2146924982,2147715821,2147119853,668,-1,8,47324
1371375962,5805,985.7600097656250000,189.4161987304687500,496.9111938476562500,7.6252880096435550,38.5159111022949200,52,102,96,79,80,9922,2146957440,2147521755,2147296694,2147510729,2147089828,2146925997,2147711305,2147121371,476,-1,8,23877
1371379562,5806,991.7700195312500000,190.8515930175781200,496.5221862792969000,7.6373500823974610,38.4160385131835940,53,103,97,80,80,9923,2146960274,2147519158,2147294226,2147512274,2147085979,2146926601,2147714496,2147122102,627,-1,8,59673
1371383162,5807,986.4099731445312000,190.8609008789062500,497.1487121582031000,7.6179261207580570,38.4260292053222660,52,103,96,79,82,9921,2146961856,2147521517,2147293878,2147512704,2147087360,2146923282,2147713325,2147122715,961,-1,8,30743
1371386762,5805,983.6599731445312000,182.9331970214843800,498.9158935546875000,7.5631217956542970,38.9803504943847660,52,102,96,81,80,9921,2146961600,2147518409,2147294336,2147511177,2147088045,2146925787,2147717366,2147121408,696,-1,8,47976
1371390362,5806,978.3400268554688000,186.2109985351562500,499.8955078125000000,7.5327367782592770,38.7783088684082000,53,103,97,79,80,9612,2146961974,2147517321,2147296137,2147510299,2147086354,2146924214,2147717997,2147122560,1381,-1,8,24090
1371393962,5803,988.7600097656250000,197.3271026611328000,499.5960998535156000,7.5420241355896000,38.0576210021972660,53,104,96,79,81,9919,2146962176,2147520484,2147292178,2147511872,2147086308,2146926016,2147715904,2147125248,2816,-1,8,23686
1371397562,5805,990.1799926757812000,194.2899017333984400,498.1064147949219000,7.5882282257080080,38.2241897583007800,53,105,97,81,80,9916,2146959780,2147521408,2147293723,2147512109,2147089325,2146926226,2147715776,2147123776,2985,-1,8,42307
1371401162,5806,996.1400146484375000,185.5717010498047000,496.4746093750000000,7.6388230323791500,38.7616500854492200,50,103,96,80,80,9920,2146962825,2147522633,2147295506,2147506130,2147084507,2146928484,2147714852,2147121755,9,-1,8,28238
1371404762,5805,998.8499755859375000,185.3612976074218800,496.3822021484375000,7.6416888236999510,38.7741699218750000,52,105,97,79,80,9916,2146961883,2147519625,2147292150,2147510692,2147085357,2146927204,2147713664,2147124470,17,0,8,56534
1371408362,5803,995.6599731445312000,192.6880035400390600,496.3634948730469000,7.6422672271728520,38.2954902648925800,52,103,96,105,80,9907,2146961435,2147516617,2147295972,2147512100,2147083282,2146932726,2147715035,2147121453,1868,-1,8,53928
1371411962,5809,991.7100219726562000,192.8778991699218800,496.7348937988281000,7.6307549476623535,38.2894401550293000,51,109,96,79,81,9912,2146961197,2147519360,2147295963,2147511094,2147086464,2146922870,2147711954,2147122651,330,-1,8,49343
1371415562,5804,997.1300048828125000,186.2295074462890600,496.0857849121094000,7.6508769989013670,38.7104606628418000,52,102,95,80,80,9912,2146964059,2147517888,2147292635,2147511003,2147085933,2146922486,2147714834,2147124736,677,-1,8,34044
1371419162,5805,999.3800048828125000,185.3343963623047000,496.0996093750000000,7.6504478454589840,38.7709884643554700,52,102,96,81,80,9914,2146958180,2147518281,2147292608,2147513161,2147086893,2146924873,2147709394,2147121755,795,-1,8,32299
1371422762,5805,1000.1099853515625000,192.7973022460937500,496.1575012207031000,7.6486558914184570,38.2850990295410160,52,102,96,79,81,9913,2146960722,2147518281,2147295168,2147511277,2147084699,2146922066,2147711588,2147122916,2965,-1,8,37391
1371426362,5805,999.1099853515625000,192.8970947265625000,495.8534851074219000,7.6580781936645510,38.2732810974121100,52,103,96,80,80,9906,2146962358,2147520192,2147290358,2147508992,2147086866,2146926244,2147719451,2147124169,3035,-1,8,22388
1371429962,5807,997.9899902343750000,189.9575042724609400,495.7734069824219000,7.6605601310729980,38.4609489440918000,52,100,97,80,80,9915,2146962093,2147518646,2147291894,2147511981,2147086893,2146926573,2147713426,2147122121,3286,-1,8,20051
1371433562,5807,991.7100219726562000,192.0090026855468800,496.1622009277344000,7.6485090255737305,38.3360900878906250,52,103,96,78,79,9910,2146961609,2147517778,2147293952,2147509229,2147088036,2146927917,2147718317,2147123035,3356,-1,8,16858
1371437162,5805,1003.0100097656250000,193.5944976806640600,495.4153137207031000,7.6716609001159670,38.2210388183593750,52,107,96,80,80,9913,2146961773,2147521481,2147292068,2147507520,2147085156,2146924352,2147712512,2147124498,3160,-1,8,19852
1371440762,5804,999.5800170898438000,192.8527069091797000,495.2221069335937500,7.6776490211486820,38.2649612426757800,52,103,96,79,80,9911,2146960923,2147517010,2147291913,2147510582,2147084361,2146929234,2147714742,2147121645,3137,-1,8,10716
1371444362,5804,989.1799926757812000,194.1275024414062500,498.8927001953125000,7.5638418197631840,38.2472190856933600,52,104,95,78,79,9905,2146959744,2147516900,2147294774,2147509074,2147087716,2146924507,2147716361,2147123812,2313,-1,8,14708
1371447962,5805,991.7899780273438000,198.5260009765625000,501.8216857910156000,7.4729647636413570,38.0215301513671900,53,103,97,78,80,9904,2146957851,2147519515,2147297005,2147511469,2147084763,2146923684,2147715510,2147122102,3032,-1,8,8124
1371451562,5804,995.1199951171875000,196.0081024169922000,499.4265136718750000,7.5472869873046875,38.1374893188476560,52,103,97,80,81,9905,2146960841,2147519478,2147295040,2147509211,2147083547,2146918912,2147717330,2147121773,2947,-1,8,51331
1371455162,5803,991.4600219726562000,196.0637969970703000,499.5765991210937500,7.5426268577575680,38.1371192932128900,52,109,95,78,81,9907,2146960347,2147520210,2147295286,2147513600,2147084196,2146927753,2147715757,2147123611,3229,-1,8,49012
1371458762,5808,994.2600097656250000,193.6361999511718800,500.8887939453125000,7.5019178390502930,38.3140487670898440,52,99,96,79,81,9904,2146963209,2147518400,2147294610,2147509531,2147084352,2146926838,2147713005,2147122989,130,-1,8,11030
1371462362,5808,991.0000000000000000,196.7501983642578000,500.9277038574219000,7.5007090568542480,38.1170005798339840,52,103,95,79,81,9894,2146959515,2147519497,2147297691,2147511478,2147083986,2146925522,2147719917,2147123081,221,0,8,30022
1371465962,5806,992.0300292968750000,195.8607940673828000,501.6437988281250000,7.4784870147705080,38.1860694885253900,52,102,97,80,81,9895,2146961051,2147513810,2147297801,2147509705,2147086601,2146920374,2147717814,2147119076,3390,-1,8,21356
1371469562,5807,995.8400268554688000,197.4875030517578000,500.9984130859375000,7.4985179901123050,38.0730018615722660,53,105,96,79,80,9896,2146963456,2147520832,2147295387,2147511131,2147085878,2146922624,2147714624,2147122761,691,-1,8,24953
1371473162,5808,1001.1599731445312000,196.6459960937500000,499.1267089843750000,7.5565848350524900,38.0925102233886700,53,104,96,79,81,9879,2146960868,2147519003,2147292781,2147510994,2147089654,2146923099,2147717549,2147121737,326,-1,8,28600
1371476762,5806,999.6900024414062000,195.2919006347656200,498.1730041503906000,7.5861639976501465,38.1609992980957000,53,104,97,79,79,9875,2146962020,2147520905,2147296274,2147509705,2147082176,2146926235,2147712411,2147121197,47,0,8,35080
1371479154,5806,999.5399780273438000,193.7174987792968800,497.9081115722656000,7.5943789482116700,38.2570304870605500,52,105,96,81,79,9906,2146962112,2147518528,2147294043,2147506962,2147087040,2146928813,2147715154,2147121782,195,0,8,56496
